Time,TemperatureF,DewpointF,PressureIn,WindDirection,WindDirectionDegrees,WindSpeedMPH,WindSpeedGustMPH,Humidity,HourlyPrecipIn,Conditions,Clouds,dailyrainin,SoftwareType,DateUTC
2013-01-14 07:10:00,12.8,10.0,30.46,NW,320,3.0,8.0,87,0.00,,,0.00,weatherlink.com 1.10,2013-01-14 13:10:00,
2013-01-14 07:29:00,12.7,10.0,30.47,NW,317,3.0,9.0,88,0.00,,,0.00,weatherlink.com 1.10,2013-01-14 13:29:00,
2013-01-14 07:44:00,12.9,10.0,30.47,North,351,1.0,8.0,88,0.00,,,0.00,weatherlink.com 1.10,2013-01-14 13:44:00,
2013-01-14 07:59:00,13.3,10.0,30.48,NNW,329,2.0,7.0,87,0.00,,,0.00,weatherlink.com 1.10,2013-01-14 13:59:00,
2013-01-14 08:14:00,13.5,10.0,30.48,NW,304,6.0,11.0,86,0.00,,,0.00,weatherlink.com 1.10,2013-01-14 14:14:00,
2013-01-14 08:29:00,14.0,10.0,30.48,NW,319,5.0,10.0,85,0.00,,,0.00,weatherlink.com 1.10,2013-01-14 14:29:00,
2013-01-14 08:44:00,14.7,11.0,30.47,NNW,334,5.0,11.0,85,0.00,,,0.00,weatherlink.com 1.10,2013-01-14 14:44:00,
2013-01-14 08:59:00,14.8,11.0,30.48,NNW,348,6.0,11.0,84,0.00,,,0.00,weatherlink.com 1.10,2013-01-14 14:59:00,
2013-01-14 09:14:00,15.3,11.0,30.47,North,351,5.0,11.0,84,0.00,,,0.00,weatherlink.com 1.10,2013-01-14 15:14:00,
2013-01-14 09:29:00,15.5,11.0,30.46,North,355,8.0,12.0,83,0.00,,,0.00,weatherlink.com 1.10,2013-01-14 15:29:00,
2013-01-14 09:44:00,16.1,12.0,30.46,NNW,344,6.0,14.0,84,0.00,,,0.00,weatherlink.com 1.10,2013-01-14 15:44:00,
2013-01-14 09:59:00,17.2,14.0,30.47,NNW,346,6.0,12.0,85,0.00,,,0.00,weatherlink.com 1.10,2013-01-14 15:59:00,
2013-01-14 10:29:00,18.0,14.0,30.50,NW,322,4.0,7.0,85,0.00,,,0.00,weatherlink.com 1.10,2013-01-14 16:29:00,
2013-01-14 10:44:00,18.5,14.0,30.50,NNW,337,4.0,7.0,83,0.00,,,0.00,weatherlink.com 1.10,2013-01-14 16:44:00,
2013-01-14 10:59:00,18.8,15.0,30.49,NNW,331,5.0,7.0,84,0.00,,,0.00,weatherlink.com 1.10,2013-01-14 16:59:00,
2013-01-14 11:14:00,19.2,15.0,30.49,NNW,331,6.0,6.0,84,0.00,,,0.00,weatherlink.com 1.10,2013-01-14 17:14:00,
2013-01-14 11:29:00,19.4,15.0,30.49,North,355,4.0,8.0,84,0.00,,,0.00,weatherlink.com 1.10,2013-01-14 17:29:00,
2013-01-14 11:44:00,19.8,16.0,30.49,NNW,344,2.0,7.0,85,0.00,,,0.00,weatherlink.com 1.10,2013-01-14 17:44:00,
2013-01-14 11:59:00,20.1,16.0,30.49,NW,313,1.0,5.0,84,0.00,,,0.00,weatherlink.com 1.10,2013-01-14 17:59:00,
2013-01-14 12:14:00,20.6,16.0,30.49,NW,314,1.0,6.0,83,0.00,,,0.00,weatherlink.com 1.10,2013-01-14 18:14:00,
2013-01-14 12:29:00,20.5,16.0,30.48,NNW,333,4.0,7.0,83,0.00,,,0.00,weatherlink.com 1.10,2013-01-14 18:29:00,
2013-01-14 12:44:00,20.7,16.0,30.48,NNW,333,4.0,7.0,83,0.00,,,0.00,weatherlink.com 1.10,2013-01-14 18:44:00,
2013-01-14 12:59:00,20.6,16.0,30.48,WNW,301,4.0,8.0,83,0.00,,,0.00,weatherlink.com 1.10,2013-01-14 18:59:00,
2013-01-14 13:14:00,20.6,16.0,30.47,NW,309,5.0,8.0,82,0.00,,,0.00,weatherlink.com 1.10,2013-01-14 19:14:00,
2013-01-14 13:29:00,21.0,16.0,30.49,NNW,348,2.0,8.0,81,0.00,,,0.00,weatherlink.com 1.10,2013-01-14 19:29:00,
2013-01-14 13:44:00,21.2,17.0,30.49,NNW,327,2.0,9.0,82,0.00,,,0.00,weatherlink.com 1.10,2013-01-14 19:44:00,
2013-01-14 13:59:00,21.8,17.0,30.50,NW,321,5.0,8.0,81,0.00,,,0.00,weatherlink.com 1.10,2013-01-14 19:59:00,
2013-01-14 14:14:00,22.9,18.0,30.50,NW,317,0.0,7.0,81,0.00,,,0.00,weatherlink.com 1.10,2013-01-14 20:14:00,
2013-01-14 14:29:00,23.5,17.0,30.51,NNE,15,1.0,6.0,77,0.00,,,0.00,weatherlink.com 1.10,2013-01-14 20:29:00,
2013-01-14 14:44:00,23.3,17.0,30.51,NW,322,2.0,6.0,75,0.00,,,0.00,weatherlink.com 1.10,2013-01-14 20:44:00,
2013-01-14 15:00:00,24.1,17.0,30.50,North,5,3.0,4.0,74,0.00,,,0.00,weatherlink.com 1.10,2013-01-14 21:00:00,
2013-01-14 15:15:00,23.6,16.0,30.51,NNE,22,2.0,6.0,73,0.01,,,0.01,weatherlink.com 1.10,2013-01-14 21:15:00,
2013-01-14 15:30:00,23.2,17.0,30.50,NNE,13,0.0,4.0,76,0.01,,,0.01,weatherlink.com 1.10,2013-01-14 21:30:00,
2013-01-14 15:45:00,24.0,17.0,30.51,NE,42,1.0,4.0,73,0.01,,,0.01,weatherlink.com 1.10,2013-01-14 21:45:00,
2013-01-14 16:00:00,23.1,16.0,30.50,NE,42,2.0,4.0,74,0.01,,,0.00,weatherlink.com 1.10,2013-01-14 22:00:00,
2013-01-14 16:15:00,22.9,16.0,30.49,NE,42,1.0,4.0,75,0.00,,,0.00,weatherlink.com 1.10,2013-01-14 22:15:00,
2013-01-14 16:30:00,23.0,16.0,30.49,NE,41,1.0,4.0,75,0.00,,,0.00,weatherlink.com 1.10,2013-01-14 22:30:00,
2013-01-14 16:45:00,22.5,16.0,30.48,NE,41,3.0,3.0,77,0.00,,,0.00,weatherlink.com 1.10,2013-01-14 22:45:00,
2013-01-14 17:00:00,22.0,16.0,30.49,NE,41,1.0,3.0,78,0.00,,,0.00,weatherlink.com 1.10,2013-01-14 23:00:00,
2013-01-14 17:15:00,21.7,16.0,30.49,NE,41,1.0,2.0,78,0.00,,,0.00,weatherlink.com 1.10,2013-01-14 23:15:00,
2013-01-14 17:30:00,21.3,16.0,30.49,NE,41,0.0,1.0,79,0.00,,,0.00,weatherlink.com 1.10,2013-01-14 23:30:00,
2013-01-14 17:45:00,20.6,16.0,30.49,NE,41,0.0,0.0,81,0.00,,,0.00,weatherlink.com 1.10,2013-01-14 23:45:00,
2013-01-14 18:00:00,19.7,15.0,30.49,NE,41,0.0,0.0,82,0.00,,,0.00,weatherlink.com 1.10,2013-01-15 00:00:00,
2013-01-14 18:15:00,18.9,15.0,30.48,NE,41,0.0,0.0,84,0.00,,,0.00,weatherlink.com 1.10,2013-01-15 00:15:00,
2013-01-14 18:30:00,18.5,15.0,30.49,NE,41,0.0,0.0,86,0.00,,,0.00,weatherlink.com 1.10,2013-01-15 00:30:00,
2013-01-14 18:45:00,18.7,16.0,30.48,NE,41,0.0,1.0,87,0.00,,,0.00,weatherlink.com 1.10,2013-01-15 00:45:00,
2013-01-14 19:00:00,18.4,15.0,30.49,NE,41,0.0,0.0,87,0.00,,,0.00,weatherlink.com 1.10,2013-01-15 01:00:00,
2013-01-14 19:15:00,18.4,15.0,30.48,NE,41,0.0,0.0,87,0.00,,,0.00,weatherlink.com 1.10,2013-01-15 01:15:00,
2013-01-14 19:30:00,18.4,15.0,30.48,NE,41,0.0,1.0,87,0.00,,,0.00,weatherlink.com 1.10,2013-01-15 01:30:00,
2013-01-14 19:45:00,18.0,15.0,30.48,NE,41,0.0,0.0,86,0.00,,,0.00,weatherlink.com 1.10,2013-01-15 01:45:00,
2013-01-14 20:00:00,17.8,15.0,30.47,NE,41,1.0,2.0,87,0.00,,,0.00,weatherlink.com 1.10,2013-01-15 02:00:00,
2013-01-14 20:15:00,18.0,15.0,30.48,NE,41,0.0,1.0,87,0.00,,,0.00,weatherlink.com 1.10,2013-01-15 02:15:00,
2013-01-14 20:30:00,17.9,15.0,30.47,NE,41,0.0,1.0,87,0.00,,,0.00,weatherlink.com 1.10,2013-01-15 02:30:00,
2013-01-14 20:45:00,17.5,14.0,30.47,NE,41,0.0,2.0,87,0.00,,,0.00,weatherlink.com 1.10,2013-01-15 02:45:00,
2013-01-14 21:00:00,17.3,14.0,30.47,NE,41,0.0,1.0,88,0.00,,,0.00,weatherlink.com 1.10,2013-01-15 03:00:00,
2013-01-14 21:15:00,17.0,14.0,30.47,NE,41,0.0,1.0,87,0.00,,,0.00,weatherlink.com 1.10,2013-01-15 03:15:00,
2013-01-14 21:30:00,17.0,14.0,30.46,NE,41,0.0,0.0,88,0.00,,,0.00,weatherlink.com 1.10,2013-01-15 03:30:00,
2013-01-14 21:45:00,16.6,14.0,30.46,NE,41,0.0,0.0,88,0.00,,,0.00,weatherlink.com 1.10,2013-01-15 03:45:00,
2013-01-14 22:00:00,16.4,14.0,30.46,NE,41,0.0,1.0,88,0.00,,,0.00,weatherlink.com 1.10,2013-01-15 04:00:00,
2013-01-14 22:15:00,16.2,14.0,30.46,NE,41,0.0,1.0,89,0.00,,,0.00,weatherlink.com 1.10,2013-01-15 04:15:00,
2013-01-14 22:30:00,16.3,14.0,30.47,NE,41,2.0,2.0,89,0.00,,,0.00,weatherlink.com 1.10,2013-01-15 04:30:00,
2013-01-14 22:45:00,16.2,13.0,30.48,NE,41,1.0,3.0,88,0.00,,,0.00,weatherlink.com 1.10,2013-01-15 04:45:00,
2013-01-14 23:01:00,16.0,13.0,30.47,NE,41,0.0,1.0,88,0.00,,,0.00,weatherlink.com 1.10,2013-01-15 05:01:00,
2013-01-14 23:15:00,15.8,13.0,30.48,NE,41,1.0,1.0,88,0.00,,,0.00,weatherlink.com 1.10,2013-01-15 05:15:00,
2013-01-14 23:31:00,15.6,13.0,30.48,NE,41,0.0,1.0,88,0.00,,,0.00,weatherlink.com 1.10,2013-01-15 05:31:00,
2013-01-14 23:46:00,15.7,13.0,30.47,NE,41,0.0,2.0,88,0.00,,,0.00,weatherlink.com 1.10,2013-01-15 05:46:00,